Wind_Speed
28 28 28 29 30 31 31 32 33 34 35 37 37 36 37 39 40 41 41 43 44 43 41 40 39 37 36 37 38 39 36 33 32 31 31 30 29 31 34 35 34 34
29 29 29 30 31 32 32 33 33 34 35 37 37 38 39 41 41 41 41 42 42 42 41 40 39 37 36 36 38 39 36 34 33 32 31 30 30 30 33 36 35 34
30 30 30 30 31 32 33 33 34 34 35 36 38 39 40 41 42 42 42 41 40 39 39 40 38 36 35 35 36 37 36 34 34 33 31 31 31 30 32 36 36 35
31 31 31 31 32 33 33 34 34 35 35 36 37 38 40 41 42 42 42 41 40 38 37 37 37 36 35 35 35 35 36 35 34 34 32 31 30 29 32 36 37 36
31 31 31 31 32 33 33 34 34 35 35 35 36 37 38 39 40 42 42 41 40 38 36 36 36 36 36 36 35 35 35 36 35 34 33 31 30 30 32 35 38 37
32 32 32 32 33 33 34 34 34 34 34 33 33 34 35 36 37 39 40 40 39 36 36 37 37 37 36 35 35 34 35 36 35 34 33 31 31 32 32 35 38 38
31 32 32 33 34 34 34 34 33 34 34 32 32 33 34 35 35 36 36 37 37 35 34 35 35 35 35 34 34 34 35 34 33 33 32 31 31 31 31 33 36 36
32 32 33 34 35 35 34 34 33 33 33 33 32 32 33 34 33 33 34 35 35 33 32 31 32 34 34 34 35 35 34 33 31 31 31 30 31 30 30 31 33 34
32 33 34 35 35 34 33 33 33 33 33 33 32 32 32 33 33 32 32 32 33 32 31 29 30 32 34 34 35 35 34 32 31 30 30 31 30 29 29 31 32 33
33 33 34 34 33 33 32 33 33 33 33 32 31 31 31 32 32 32 31 31 31 31 31 30 29 30 31 32 33 33 33 32 32 31 29 29 29 29 30 33 34 36
33 33 33 32 32 32 32 33 33 33 33 32 31 31 30 31 32 32 31 30 30 30 29 30 30 29 29 31 31 32 32 31 32 32 29 28 27 27 31 34 35 36
32 32 31 31 31 31 32 33 33 33 33 32 31 30 30 30 31 31 31 30 29 28 27 28 30 29 28 29 30 31 32 31 32 32 31 29 27 26 29 35 36 35
31 31 31 31 31 32 32 32 33 33 32 32 32 30 29 30 30 31 31 30 30 28 26 26 29 29 29 28 28 30 32 31 31 32 32 30 29 26 28 32 36 37
32 33 33 34 33 32 32 32 33 33 32 32 32 31 29 29 30 31 31 31 31 29 26 26 26 27 29 28 27 28 30 31 32 34 33 31 30 30 29 31 34 36
34 34 35 35 34 32 32 32 33 33 33 32 32 31 29 28 29 30 31 32 32 30 27 27 26 26 28 30 28 27 29 32 32 33 34 32 30 31 31 32 34 35
35 35 35 35 34 33 33 33 34 34 34 32 32 32 31 29 29 30 31 31 32 31 29 30 29 27 27 29 30 29 29 31 31 32 34 33 32 32 31 32 34 35
36 36 36 36 36 35 35 35 35 36 36 34 33 34 34 32 31 31 31 31 31 31 31 31 32 30 29 29 29 28 28 30 30 31 34 34 33 34 33 31 33 34
38 38 38 38 38 38 38 38 38 37 38 37 35 35 36 35 33 32 32 31 31 31 31 31 32 32 32 31 29 27 27 30 30 30 33 35 33 33 33 33 34 35
40 40 39 39 40 40 40 40 39 38 39 39 38 36 36 36 35 32 32 32 31 31 31 31 31 31 32 32 30 28 27 28 30 29 31 33 33 33 33 34 36 36
41 41 41 41 41 41 41 41 40 38 38 38 38 37 36 37 35 33 32 32 32 31 30 30 29 30 31 31 31 30 27 27 30 30 29 30 32 34 34 35 36 35
42 42 42 42 43 42 42 41 39 38 38 37 37 36 36 36 36 33 32 32 32 32 31 30 29 29 30 30 30 29 28 27 28 31 31 29 31 33 34 34 35 35
43 43 43 43 44 43 43 42 41 39 38 37 36 35 34 35 36 34 32 32 33 32 32 31 30 29 30 30 29 29 29 28 27 29 30 30 30 32 32 33 34 34
43 43 43 43 44 43 43 43 42 41 40 38 37 36 34 34 36 35 33 32 32 33 32 32 31 30 30 30 30 30 30 30 27 27 28 29 30 32 33 33 34 33
42 42 43 43 43 43 43 43 43 42 41 40 39 38 37 35 35 36 34 32 32 32 33 33 32 31 31 30 30 30 31 31 29 28 28 30 30 30 31 33 35 35
43 43 43 43 43 43 43 43 43 43 42 41 41 40 39 38 37 37 36 35 33 33 33 33 33 33 32 31 31 31 31 31 31 30 30 30 30 31 31 33 35 35
45 45 45 45 46 46 46 46 46 45 45 44 43 43 42 41 39 38 38 37 36 35 35 34 34 34 34 33 32 31 32 32 32 32 31 31 31 31 33 35 36 34
Wind_Direction
285 286 287 287 287 287 287 288 289 290 291 292 292 290 289 288 286 285 282 280 279 278 277 275 273 272 269 265 265 264 263 265 265 264 264 263 261 257 250 247 243 238
284 286 287 287 288 288 289 288 289 290 291 292 291 290 288 287 287 286 284 284 283 278 275 273 272 270 266 262 262 261 261 263 263 263 264 262 262 261 254 248 245 238
286 287 288 288 289 289 290 290 291 291 292 292 292 291 289 288 288 287 286 288 289 282 275 272 270 270 266 263 262 260 259 261 262 262 261 258 260 262 257 249 244 239
287 288 289 289 290 290 291 291 292 292 293 293 293 293 292 291 289 289 288 289 291 286 278 271 268 268 267 264 262 259 258 258 260 260 257 255 257 262 261 250 242 237
287 288 289 289 289 290 290 291 292 293 294 295 296 297 296 294 291 290 290 290 291 287 278 271 268 266 265 263 261 259 256 255 258 259 256 254 256 262 262 250 240 236
286 287 288 289 289 289 289 290 291 293 294 297 299 300 299 296 293 292 291 291 291 286 277 273 269 265 263 262 260 259 256 253 256 258 256 254 256 261 263 249 238 234
284 285 286 287 288 288 289 290 291 292 294 297 299 301 302 300 297 295 293 292 292 287 278 272 269 265 264 262 259 257 256 253 253 256 256 255 256 262 261 245 235 233
282 283 284 286 287 288 289 290 291 292 294 296 299 301 303 303 300 297 296 295 293 288 277 269 265 263 264 264 259 255 255 253 251 255 258 257 258 262 255 238 230 230
280 281 282 284 286 287 288 290 291 292 294 296 299 301 303 304 303 299 298 297 296 290 280 271 265 263 264 264 258 254 254 252 252 254 256 254 256 258 249 233 227 227
279 280 281 283 285 286 288 290 291 293 294 295 298 300 303 305 304 302 300 300 298 292 283 276 271 266 264 260 256 254 253 251 251 253 256 255 255 254 243 231 227 227
278 280 281 283 284 287 289 290 292 293 294 295 297 300 302 304 304 304 303 301 299 293 284 278 274 270 262 254 254 255 253 250 249 251 255 257 256 252 240 231 229 230
277 278 280 282 284 287 289 291 292 292 293 295 297 299 302 303 304 304 304 300 296 293 286 275 271 269 258 252 257 258 251 247 247 248 251 251 250 248 240 234 234 233
276 276 279 282 285 287 289 291 291 292 294 295 297 299 301 303 303 303 304 300 296 295 288 273 269 265 256 255 263 260 249 246 245 244 246 247 244 244 241 237 237 236
275 276 279 282 284 285 287 289 290 291 293 294 296 298 299 301 301 302 302 300 297 296 287 275 271 265 256 258 262 257 251 249 246 243 245 245 243 244 243 238 237 237
275 276 278 280 281 282 284 287 288 289 290 292 294 296 297 299 299 299 300 299 298 297 289 281 278 270 260 257 258 259 256 251 246 244 245 245 245 246 243 237 236 235
275 275 276 276 279 281 283 285 287 288 289 289 291 293 294 296 297 297 297 296 296 297 292 286 284 280 271 265 264 268 264 253 246 244 244 244 246 246 245 241 237 233
275 274 273 274 276 280 282 284 285 287 287 287 288 289 291 293 294 294 294 293 293 294 292 289 286 284 283 279 275 274 265 253 248 246 243 243 245 245 246 246 242 239
273 273 272 273 274 277 281 283 284 285 286 285 285 286 287 289 291 291 290 289 291 291 290 290 288 286 286 283 279 278 268 254 250 249 244 243 245 246 246 247 245 244
273 272 272 273 274 276 279 282 283 283 284 284 284 284 284 285 287 288 287 286 287 288 288 288 288 288 286 282 278 282 277 258 250 251 247 243 246 248 246 246 246 245
273 273 273 273 274 276 278 280 281 282 282 282 282 282 282 282 283 284 284 284 283 284 286 286 285 285 284 282 279 282 281 265 252 250 248 245 246 247 246 246 247 247
274 274 275 275 275 276 277 278 279 280 281 280 280 279 279 279 280 281 281 281 281 281 283 284 284 283 282 283 283 281 280 273 258 250 248 247 245 246 247 247 247 248
275 276 276 276 276 277 277 277 278 279 279 278 278 278 277 277 278 278 278 278 278 278 279 280 282 282 282 283 283 279 278 276 265 253 248 247 245 246 249 250 249 249
277 277 277 277 277 277 277 277 278 279 278 277 276 276 276 276 276 277 276 276 276 276 277 277 279 280 281 281 281 279 279 279 273 260 249 246 246 246 247 250 250 250
277 277 277 277 277 277 277 277 278 279 278 277 276 275 275 275 276 277 276 274 274 275 275 275 275 276 277 279 280 281 279 278 276 268 257 252 248 245 246 249 252 250
278 278 278 278 278 279 279 278 278 279 278 278 277 275 275 275 275 276 276 274 273 273 274 274 274 274 274 275 277 279 279 277 276 272 265 259 252 246 245 251 256 250
280 280 280 280 280 280 280 280 279 279 279 279 278 277 276 276 275 275 275 275 273 272 272 273 273 272 272 272 273 274 276 276 275 273 270 266 258 250 247 251 257 256
Height
5789 5788 5788 5787 5786 5785 5784 5784 5782 5781 5780 5778 5777 5775 5774 5773 5773 5772 5770 5769 5768 5768 5768 5768 5767 5768 5768 5768 5768 5768 5769 5770 5770 5770 5770 5771 5772 5773 5774 5775 5777 5778
5786 5785 5785 5784 5783 5781 5781 5780 5779 5778 5776 5775 5773 5772 5770 5769 5768 5768 5766 5765 5764 5763 5763 5763 5763 5763 5764 5764 5764 5764 5765 5766 5767 5766 5766 5767 5769 5769 5770 5771 5772 5774
5782 5782 5781 5780 5779 5778 5777 5776 5775 5774 5773 5771 5770 5768 5767 5765 5764 5763 5762 5761 5759 5758 5758 5758 5759 5759 5759 5759 5760 5760 5761 5762 5763 5763 5762 5764 5765 5766 5766 5766 5768 5769
5779 5778 5777 5777 5775 5774 5773 5772 5771 5770 5769 5768 5766 5765 5763 5761 5760 5759 5758 5757 5756 5754 5753 5753 5754 5755 5755 5755 5756 5756 5757 5758 5759 5759 5759 5760 5761 5761 5762 5762 5764 5766
5775 5774 5774 5773 5772 5771 5770 5769 5768 5766 5766 5765 5763 5761 5759 5757 5756 5754 5753 5753 5752 5750 5749 5749 5750 5750 5750 5751 5751 5753 5754 5754 5755 5756 5756 5756 5757 5757 5757 5757 5759 5762
5772 5771 5770 5769 5768 5768 5767 5765 5764 5763 5762 5761 5760 5758 5756 5754 5752 5750 5749 5748 5747 5746 5744 5744 5745 5746 5746 5747 5748 5749 5749 5750 5751 5752 5752 5753 5753 5753 5753 5753 5755 5758
5769 5768 5767 5766 5765 5764 5763 5762 5761 5760 5759 5758 5757 5755 5753 5751 5748 5746 5745 5743 5742 5741 5740 5740 5741 5742 5743 5743 5744 5745 5745 5746 5747 5748 5748 5749 5749 5749 5749 5749 5751 5754
5766 5765 5764 5763 5762 5761 5760 5759 5758 5756 5755 5754 5753 5751 5749 5747 5745 5743 5741 5739 5738 5737 5736 5736 5737 5738 5739 5739 5740 5741 5741 5742 5743 5744 5745 5745 5745 5745 5745 5745 5747 5751
5763 5762 5761 5760 5759 5758 5757 5755 5754 5753 5752 5751 5750 5748 5746 5744 5742 5740 5739 5736 5735 5733 5732 5732 5733 5734 5734 5734 5735 5736 5737 5738 5739 5740 5741 5741 5741 5741 5742 5743 5745 5748
5759 5759 5758 5757 5756 5754 5753 5752 5751 5750 5749 5748 5747 5745 5743 5741 5739 5737 5736 5734 5732 5730 5728 5728 5729 5729 5729 5729 5730 5732 5733 5734 5735 5736 5737 5737 5738 5739 5739 5741 5742 5744
5756 5755 5754 5753 5752 5751 5750 5749 5748 5746 5745 5744 5743 5742 5740 5738 5736 5734 5733 5731 5729 5728 5727 5725 5725 5725 5726 5726 5727 5728 5729 5730 5731 5732 5734 5734 5735 5735 5736 5737 5739 5740
5752 5751 5751 5750 5749 5748 5747 5745 5744 5743 5742 5741 5740 5739 5737 5735 5733 5732 5730 5728 5726 5725 5724 5723 5722 5722 5722 5723 5724 5723 5724 5726 5727 5728 5730 5731 5731 5732 5733 5734 5736 5737
5749 5748 5747 5747 5746 5745 5743 5742 5741 5739 5739 5738 5736 5736 5734 5732 5731 5729 5727 5725 5723 5722 5721 5720 5719 5719 5719 5721 5721 5720 5719 5721 5723 5724 5725 5726 5727 5728 5729 5731 5732 5733
5745 5744 5744 5743 5742 5741 5740 5739 5737 5736 5735 5734 5733 5732 5731 5730 5728 5726 5724 5722 5720 5719 5718 5717 5716 5716 5716 5717 5717 5715 5715 5717 5718 5719 5720 5722 5723 5724 5725 5726 5728 5729
5742 5741 5740 5739 5738 5737 5736 5735 5734 5733 5731 5730 5729 5728 5728 5727 5725 5723 5721 5719 5717 5716 5715 5713 5712 5712 5713 5713 5712 5711 5711 5712 5714 5715 5715 5717 5719 5720 5721 5722 5724 5725
5737 5737 5736 5735 5734 5733 5732 5731 5730 5729 5728 5727 5726 5725 5724 5723 5722 5720 5718 5716 5714 5713 5712 5709 5708 5707 5708 5707 5707 5706 5706 5707 5709 5710 5711 5713 5715 5717 5718 5719 5720 5721
5733 5732 5732 5731 5730 5729 5728 5727 5726 5725 5724 5723 5722 5721 5720 5719 5718 5717 5715 5713 5711 5710 5708 5706 5704 5704 5703 5703 5702 5702 5702 5703 5704 5706 5707 5709 5711 5713 5714 5715 5716 5717
5728 5727 5727 5726 5725 5724 5723 5723 5722 5721 5719 5718 5717 5717 5716 5715 5714 5713 5711 5710 5708 5706 5705 5703 5702 5701 5701 5700 5700 5700 5699 5699 5700 5701 5703 5705 5707 5708 5710 5711 5712 5712
5723 5722 5722 5721 5720 5720 5719 5718 5717 5716 5715 5714 5713 5712 5711 5710 5710 5709 5707 5706 5705 5703 5702 5700 5699 5699 5698 5697 5697 5697 5696 5696 5697 5698 5699 5701 5703 5704 5705 5706 5707 5708
5718 5717 5716 5716 5715 5715 5714 5713 5712 5712 5711 5709 5708 5707 5707 5706 5705 5704 5703 5702 5701 5700 5698 5697 5697 5696 5695 5694 5694 5694 5693 5693 5693 5694 5695 5697 5698 5699 5700 5701 5702 5703
5712 5712 5711 5710 5710 5709 5708 5708 5707 5707 5706 5705 5704 5703 5702 5701 5700 5699 5698 5697 5696 5696 5694 5694 5693 5692 5692 5691 5691 5691 5690 5689 5689 5690 5691 5692 5693 5695 5696 5697 5697 5699
5707 5706 5706 5705 5704 5704 5703 5702 5702 5701 5701 5700 5699 5698 5698 5697 5695 5695 5694 5693 5692 5691 5690 5690 5689 5689 5688 5687 5687 5687 5686 5686 5686 5686 5686 5688 5689 5690 5691 5692 5693 5694
5702 5701 5700 5699 5699 5698 5697 5697 5696 5695 5695 5695 5694 5693 5693 5692 5691 5690 5689 5688 5687 5687 5686 5685 5685 5685 5684 5683 5683 5683 5682 5682 5682 5682 5682 5683 5684 5685 5687 5687 5688 5690
5696 5695 5694 5694 5693 5692 5692 5691 5690 5689 5689 5689 5688 5688 5687 5687 5686 5685 5684 5684 5683 5682 5681 5681 5680 5680 5680 5680 5679 5679 5679 5679 5679 5679 5678 5679 5680 5681 5682 5683 5684 5685
5690 5690 5689 5688 5687 5686 5686 5685 5684 5684 5683 5682 5682 5682 5681 5681 5681 5680 5679 5678 5678 5677 5676 5676 5675 5675 5676 5676 5676 5675 5675 5675 5676 5675 5675 5675 5676 5677 5677 5678 5679 5681
5684 5683 5682 5681 5681 5680 5679 5678 5678 5677 5677 5676 5676 5675 5675 5674 5674 5674 5673 5673 5673 5672 5672 5671 5671 5670 5670 5671 5671 5671 5671 5671 5672 5672 5672 5672 5672 5673 5673 5674 5674 5676